Regional Weather Roundup
Issued by NWS Charleston, SC

Current Version | Previous Version | Text Only | Print | Product List | Glossary Off
Versions: 1 2 3 4 5 6 7 8 9 10 11 12 13 14 15 16 17 18 19 20 21 22 23 24 25 26 27 28 29 30 31 32 33 34 35 36 37 38 39 40 41 42 43 44 45 46 47 48 49 50

000
ASUS42 KCHS 261528
RWRCHS

REGIONAL WEATHER ROUNDUP
NATIONAL WEATHER SERVICE CHARLESTON SC
1100 AM EDT THU MAY 26 2016

NOTE: "FAIR" INDICATES FEW OR NO CLOUDS BELOW 12,000 FEET WITH NO
SIGNIFICANT WEATHER AND/OR OBSTRUCTIONS TO VISIBILITY.

NOT ALL STATIONS ARE QUALITY CONTROLLED. USE DATA WITH CAUTION...
ESPECIALLY DEWPOINT OBSERVATIONS.

SCZ027-030-031-034>040-042>050-261600-
...SOUTHEAST SOUTH CAROLINA...

CITY           SKY/WX    TMP DP  RH WIND       PRES   REMARKS
N CHARLESTON   MOSUNNY   82  63  52 S7        30.21S
WATERFRONT PRK   N/A     78  66  66 S5        30.19S
MOUNT PLEASANT FAIR      82  66  57 S8        30.21F
JOHNS ISLAND   FAIR      81  66  61 S10       30.22S
PINOPOLIS        N/A     82  66  57 VRB3      30.12F
MONCKS CORNER  PTSUNNY   79  57  47 SW7       30.21S
SUMMERVILLE    FAIR      82  66  57 S5        30.22S
BEAUFORT MCAS  MOSUNNY   83  65  54 CALM      30.21F
BEAUFORT ARPT  FAIR      81  63  54 SW6       30.22R
HILTON HEAD IS SUNNY     84  64  51 S8        30.23S
WALTERBORO     PTSUNNY   82  66  57 W7        30.22S
ALLENDALE      FAIR      81  63  54 VRB6      30.20S

...SOUTHERN MIDLANDS AND PEE DEE...

CITY           SKY/WX    TMP DP  RH WIND       PRES   REMARKS
GEORGETOWN     PTSUNNY   79  63  57 SW5       30.22S
KINGSTREE      PTSUNNY   81  63  54 S7        30.21S
ORANGEBURG     SUNNY     81  62  52 SW9       30.21F
BARNWELL       FAIR      84  64  51 SW7       30.21S
AIKEN          FAIR      81  59  47 SW9       30.23S
MANNING        FAIR      79  63  57 SW7       30.21S
COLUMBIA       MOSUNNY   84  60  44 S7        30.18F
SUMTER         SUNNY     80  65  59 S6        30.18F
FLORENCE       SUNNY     82  65  56 W12       30.20
MYRTLE BEACH   MOSUNNY   81  63  54 S12       30.23S
N MYRTLE BEACH SUNNY     79  65  62 S12       30.21S

$$

GAZ063-065-086>088-099>101-113>116-118-119-134>141-150-261600-
...SOUTHEAST GEORGIA...

CITY           SKY/WX    TMP DP  RH WIND       PRES   REMARKS
SAVANNAH ARPT  MOSUNNY   81  63  54 VRB3      30.21F
HUNTER AAF     SUNNY     82  65  57 SE7       30.18F
FORT STEWART   SUNNY     80  65  58 CALM      30.19F
STATESBORO     SUNNY     82  66  57 SW6       30.21S
SYLVANIA       SUNNY     84  65  52 SW6       30.22S
CLAXTON        FAIR      82  65  56 CALM      30.21S

...CSRA...CENTRAL AND FAR SOUTHEAST GEORGIA...

CITY           SKY/WX    TMP DP  RH WIND       PRES   REMARKS
THOMSON        SUNNY     84  69  60 CALM      30.23S
AUGUSTA-BUSH   MOSUNNY   81  62  52 SW8       30.19F
AUGUSTA-DANIEL PTSUNNY   82  61  48 S9        30.20F
SWAINSBORO     PTSUNNY   81  57  44 SW8       30.21S
VIDALIA        MOSUNNY   81  63  54 S5        30.21S
EASTMAN        PTSUNNY   81  62  52 SW6       30.23S
HAZLEHURST     FAIR      83  56  39 CALM      30.20S
ALMA           SUNNY     80  63  55 VRB7      30.20F
WAYCROSS       SUNNY     81  66  59 S3        30.20F
JESUP          FAIR      79  59  50 CALM      30.21S
BAXLEY         FAIR      82  61  47 CALM      30.20S
BRUNSWICK      MOSUNNY   86  63  45 E5        30.21S
SAINT SIMONS   SUNNY     80  64  58 SE9       30.20F

$$

SCZ027-028-034-036>038-045-046-048>050-GAZ119-141-261600-
...LAKE AND SUPPLEMENTAL COASTAL OBSERVATIONS...

STATION/POSITION TIME  TEMP    WIND        PRES    WAVE   SWELL
                       AIR SEA DIR/SP/G            HT/PER HT/PER/DIR
                 (UTC) (F)     (DEG/KT/KT) (MB)    (FT/S) (FT/S/D)
WINYAH BAY       1445   79     170/  7     1022.0F
LAKE MURRAY      1400   76     170/  4/  6 1022.0F
ACE BASIN NERRS  1400   80        CALM     1023.0S
FORT PULASKI     1500   78 76  190/  3/  4 1023.5F
SAPELO ISLAND    1500   84     110/  7     1023.0S

$$

ANZ835-935-AMZ111-154-330-350-352-354-370-450-454-472-261600-
...C-MAN AND BUOY OBSERVATIONS...

STATION/POSITION TIME  TEMP    WIND        PRES    WAVE   SWELL
                       AIR SEA DIR/SP/G            HT/PER HT/PER/DIR
                 (UTC) (F)     (DEG/KT/KT) (MB)    (FT/S) (FT/S/D)
BUOY 41004       1450   77 76  160/  4/  6 1022.8F   2/ 7   2/ 7
BUOY 41008       1450   77 77  170/  4/  4 1023.3R   2/ 9   2/ 90/ 9
FOLLY BEACH CMAN 1500   77     200/  5/  7 1023.5S
CAPERS NEARSHORE 1508   76 76  220/  8/ 10 1023.1F
FRIPP NEARSHORE  1508   77 77  190/  4/  6 1022.9R


STATION/POSITION TIME  TEMP    WIND        PRES    WAVE   SWELL
                       AIR SEA DIR/SP/G            HT/PER HT/PER/DIR
                 (UTC) (F)     (DEG/KT/KT) (MB)    (FT/S) (FT/S/D)
5E ST. MARYS GA  1451      78                N/A     2/ 8
FRYING PAN BUOY  1500   77 77  180/  6/  6 1023.0F
BUOY 41025       1450   72 70  240/  6/  6 1023.3F   2/ 8   2/120/ 8
CAPE LOOKOUT NC  1500   78     220/  8/ 12 1023.0F
BUOY 41002       1450   75 78   50/ 12/ 14 1022.8F   2/ 9   2/ 90/ 9
BUOY 41010       1420   76 78   50/ 10/ 12 1021.0F
ST AUGUSTINE FL  1500   76 79   60/  7/  8 1023.3F


$$




USA.gov is the U.S. government's official web portal to all federal, state and local government web resources and services.